TimeEST,TemperatureF,Dew PointF,Humidity,Sea Level PressureIn,VisibilityMPH,Wind Direction,Wind SpeedMPH,Gust SpeedMPH,PrecipitationIn,Events,Conditions,WindDirDegrees,DateUTC
12:53 AM,17.1,3.9,56,30.14,10.0,NE,3.5,-,N/A,,Overcast,40,2013-01-24 05:53:00
1:53 AM,16.0,9.0,74,30.14,2.5,East,4.6,-,0.00,Snow,Light Snow,80,2013-01-24 06:53:00
2:53 AM,15.1,10.9,84,30.14,2.0,ENE,6.9,-,0.00,Snow,Light Snow,60,2013-01-24 07:53:00
3:07 AM,15.8,10.4,79,30.08,3.0,NE,8.1,-,0.00,Snow,Light Snow,50,2013-01-24 08:07:00
3:15 AM,15.8,10.4,79,30.08,2.5,ENE,8.1,-,0.00,Snow,Light Snow,60,2013-01-24 08:15:00
3:51 AM,15.8,10.4,79,30.08,1.8,ENE,5.8,-,0.00,Snow,Light Snow,70,2013-01-24 08:51:00
3:53 AM,15.1,10.9,84,30.15,2.0,ENE,5.8,-,0.00,Snow,Light Snow,60,2013-01-24 08:53:00
4:53 AM,15.1,12.0,88,30.17,2.0,NNE,3.5,-,0.00,Snow,Light Snow,20,2013-01-24 09:53:00
5:03 AM,15.8,12.2,86,30.11,2.0,North,5.8,-,0.00,Snow,Light Snow,350,2013-01-24 10:03:00
5:41 AM,15.8,12.2,86,30.13,1.8,North,5.8,-,0.00,Snow,Light Snow,10,2013-01-24 10:41:00
5:53 AM,15.1,12.0,88,30.20,1.8,NNE,5.8,-,0.00,Snow,Light Snow,20,2013-01-24 10:53:00
5:57 AM,15.8,10.4,79,30.14,2.0,North,5.8,-,0.00,Snow,Light Snow,10,2013-01-24 10:57:00
6:42 AM,14.0,10.4,86,30.17,2.5,North,4.6,-,0.00,Snow,Light Snow,360,2013-01-24 11:42:00
6:53 AM,12.9,10.0,88,30.25,3.0,North,5.8,-,0.00,Snow,Light Snow,350,2013-01-24 11:53:00
7:00 AM,12.2,10.4,92,30.18,4.0,North,5.8,-,0.00,,Overcast,350,2013-01-24 12:00:00
7:53 AM,12.9,10.9,92,30.29,3.0,NW,4.6,-,0.00,Snow,Light Snow,320,2013-01-24 12:53:00
8:53 AM,15.1,10.0,80,30.33,5.0,NNW,6.9,-,0.00,,Haze,330,2013-01-24 13:53:00
9:53 AM,18.0,10.0,71,30.36,10.0,NW,4.6,-,N/A,,Clear,310,2013-01-24 14:53:00
10:53 AM,19.9,8.1,60,30.38,10.0,NW,11.5,-,N/A,,Partly Cloudy,320,2013-01-24 15:53:00
11:53 AM,23.0,8.1,53,30.41,10.0,NW,18.4,26.5,N/A,,Mostly Cloudy,320,2013-01-24 16:53:00
12:53 PM,23.0,3.0,42,30.42,10.0,NNW,18.4,27.6,N/A,,Partly Cloudy,330,2013-01-24 17:53:00
1:53 PM,24.1,3.0,40,30.41,10.0,NNW,20.7,24.2,N/A,,Scattered Clouds,330,2013-01-24 18:53:00
2:53 PM,24.1,1.0,37,30.43,10.0,NW,20.7,26.5,N/A,,Partly Cloudy,320,2013-01-24 19:53:00
3:53 PM,24.1,1.9,38,30.46,10.0,NW,13.8,-,N/A,,Mostly Cloudy,320,2013-01-24 20:53:00
4:53 PM,21.9,1.9,42,30.48,10.0,NNW,15.0,-,N/A,,Partly Cloudy,330,2013-01-24 21:53:00
5:53 PM,19.0,3.0,50,30.51,10.0,WNW,6.9,-,N/A,,Clear,300,2013-01-24 22:53:00
6:53 PM,18.0,1.9,50,30.53,10.0,WNW,8.1,-,N/A,,Clear,300,2013-01-24 23:53:00
7:53 PM,16.0,1.0,52,30.56,10.0,WNW,5.8,-,N/A,,Clear,290,2013-01-25 00:53:00
8:53 PM,18.0,-0.0,45,30.54,10.0,NW,11.5,-,N/A,,Clear,320,2013-01-25 01:53:00
9:53 PM,16.0,-0.9,47,30.55,10.0,NW,5.8,-,N/A,,Clear,320,2013-01-25 02:53:00
10:53 PM,15.1,-0.0,51,30.54,10.0,NW,8.1,-,N/A,,Clear,310,2013-01-25 03:53:00
11:53 PM,15.1,-0.0,51,30.55,10.0,WNW,6.9,-,N/A,,Clear,290,2013-01-25 04:53:00